This is the latest recevied weather packets stored in our database for station/object KB3AWQ. If no packets are shown the sender has not sent any weather packets the latest 10 day(s).
| Time | Temp. | Humidity | Pressure | Rain* | Wind** | Luminosity | Snow |
|---|---|---|---|---|---|---|---|
| 1777993768 | 25.56° C | 51% | 1008.1 hPa | 0 mm | - | 550 W/m² | - |
| 1777993466 | 25.56° C | 48% | 1008.1 hPa | 0 mm | - | 920 W/m² | - |
| 1777993166 | 25.56° C | 53% | 1008.1 hPa | 0 mm | - | 793 W/m² | - |
| 1777992868 | 25° C | 50% | 1008.1 hPa | 0 mm | - | 619 W/m² | - |
| 1777992567 | 24.44° C | 53% | 1008.1 hPa | 0 mm | - | 604 W/m² | - |
| 1777992267 | 24.44° C | 54% | 1008.1 hPa | 0 mm | - | 758 W/m² | - |
| 1777991968 | 24.44° C | 54% | 1008.2 hPa | 0 mm | - | 228 W/m² | - |
| 1777991667 | 24.44° C | 56% | 1008.2 hPa | 0 mm | - | 751 W/m² | - |
| 1777991366 | 24.44° C | 56% | 1008.3 hPa | 0 mm | - | 184 W/m² | - |
| 1777991069 | 23.89° C | 57% | 1008.2 hPa | 0 mm | - | 513 W/m² | - |
| 1777990501 | 23.89° C | 57% | 1008.3 hPa | 0 mm | - | 648 W/m² | - |
| 1777989867 | 22.78° C | 60% | 1008.3 hPa | 0 mm | - | 640 W/m² | - |
| 1777989569 | 22.22° C | 61% | 1008.4 hPa | 0 mm | - | 644 W/m² | - |
| 1777989270 | 21.67° C | 63% | 1008.4 hPa | 0 mm | - | 420 W/m² | - |
| 1777988969 | 20.56° C | 67% | 1008.4 hPa | 0 mm | - | 607 W/m² | - |
| 1777988669 | 20° C | 70% | 1008.4 hPa | 0 mm | - | 583 W/m² | - |
| 1777988371 | 19.44° C | 72% | 1008.4 hPa | 0 mm | - | 563 W/m² | - |
| 1777988066 | 19.44° C | 72% | 1008.5 hPa | 0 mm | - | 551 W/m² | - |
| 1777987770 | 19.44° C | 73% | 1008.6 hPa | 0 mm | - | 550 W/m² | - |
| 1777987470 | 18.89° C | 74% | 1008.6 hPa | 0 mm | - | 533 W/m² | - |
| 1777987171 | 18.89° C | 75% | 1008.6 hPa | 0 mm | - | 513 W/m² | - |
| 1777986867 | 18.33° C | 74% | 1008.7 hPa | 0 mm | - | 476 W/m² | - |
| 1777986567 | 18.33° C | 76% | 1008.6 hPa | 0 mm | - | 466 W/m² | - |
| 1777986266 | 17.78° C | 78% | 1008.7 hPa | 0 mm | - | 443 W/m² | - |
| 1777985967 | 16.67° C | 81% | 1008.7 hPa | 0 mm | - | 411 W/m² | - |
* Rain latest hour (hover to see other rain measurements)
** Current wind speed in m/s (hover to see current wind gust speed)